星链-36992(STARLINK-36992)

导读

STARLINK-36992(NORAD编号68149)是美国太空探索技术公司(SpaceX)星链(Starlink)项目旗下的低轨互联网通信卫星,采用Starlink V1.0平台。该卫星于2024年12月8日发射,截至2026年4月已在轨运行约510天,目前状态正常。它运行在近地轨道,轨道倾角约70.003°,近地点约570公里、远地点约574公里,轨道周期约96.1分钟。作为星链星座的组成部分,它旨在为全球尤其是偏远地区提供高速低延迟互联网服务,可支持民用通信,也可为军事、航空等领域提供通信支持。

Basic Information
目录编号:
68149
目录名称:
STARLINK-36992
国际标识:
2026-049H
轨道中心:
EARTH
卫星名称:
星链-36992
卫星全名:
星链-36992(STARLINK-36992)
卫星状态:
在轨 (已飞行176 天)
发射日期:
2026-03-13 UTC
国别 :
美国 (US)
星等 :
--
Orbit Information
数据来源 国际轨道数据
星历时间: 2026-09-05T08:39:06+0800
11小时前
查看轨道信息
半长轴: 6843.681km
偏心率: 0.0000798
轨道倾角: 97.285°
近地点辐角 104.642°
升交点赤经 268.265°
平近点角 255.491°
近地点: 464.997km
远地点: 466.091km
周期: 93.906分钟
每日圈数: 15.334448
Detailed Information
固有亮度:
5
最大亮度:
2.5
卫星平台:
Starlink V1.0
覆盖范围:
全球
运营商:
太空探索技术公司
运营商所在国:
美国
制造商(研发单位):
太空探索技术公司
制造商所在国:
美国
使用方式:
暂无
Satellite Introduction
Starlink 计划是 SpaceX 推出的全球卫星互联网项目,通过发射低轨道卫星,为全球尤其是偏远地区提供高速、低延迟的互联网服务。自 2019 年起,Starlink 已部署数千颗卫星,旨在缩小全球数字鸿沟,推动互联网普及。该项目还为军事、航空等行业提供通信支持,带来广泛经济效益。
2D Orbit Map
3D Orbit Map
Orbit Altitude Analysis Chart
Orbit Inclination Analysis Chart
Orbit Comprehensive Analysis Chart
View Comprehensive Chart
Conjunction Data List
Event ID Objects TCA Miss Dist (km) Collision Risk Probability Collision Risk Index (CRI) Action
CDM_260907-073305-872506-814921
2026-09-07T
07:33:21+0000
1.048 km
极远距离
2.296809E-5 中风险 0.62
CDM_260906-152406-416106-814921
2026-09-06T
15:24:00+0000
0.827 km
远距离
1.912557E-5 中风险 0.61
CDM_260906-215405-246106-814921
2026-09-06T
21:54:30+0000
1.221 km
极远距离
8.176053E-6 低风险 0.53
CDM_260906-143706-416106-814921
2026-09-06T
14:37:01+0000
1.502 km
极远距离
2.604017E-6 低风险 0.43
CDM_260907-071305-299106-814921
2026-09-07T
07:13:44+0000
1.979 km
极远距离
2.414532E-6 低风险 0.43
CDM_260906-161006-416106-814921
2026-09-06T
16:10:59+0000
1.663 km
极远距离
1.9275E-6 低风险 0.41
CDM_260903-122405-228306-814921
2026-09-03T
12:24:17+0000
2.569 km
极远距离
1.557218E-6 低风险 0.39
CDM_260903-144505-228306-814921
2026-09-03T
14:45:09+0000
2.705 km
极远距离
1.434307E-6 低风险 0.38
CDM_260906-064005-468606-814921
OBJECT E (54686)
2026-09-06T
06:40:37+0000
2.984 km
极远距离
1.3414E-6 低风险 0.38
CDM_260906-083204-832806-814921
2026-09-06T
08:32:01+0000
2.888 km
极远距离
1.105446E-6 低风险 0.36